Location: Bremen
(53.0796°N, 8.8241°E)
Time: 03:03:48
(UTC+01:00)

Tiangong 2 - Visible Passes

Search period start: 18 January 2018 00:00
Search period end: 28 January 2018 00:00
Orbit: 384 x 390 km, 42.8° (Epoch: 16 January)

Date Brightness Start Highest point End Pass type
(mag) Time Alt. Az. Time Alt. Az. Time Alt. Az.
19 Jan 4.2 07:15:23 10° S 07:16:18 11° SSE 07:17:13 10° SSE visible
21 Jan 3.9 06:53:53 10° SSW 06:55:22 13° S 06:56:52 10° SE visible
22 Jan 3.9 05:56:27 11° S 05:56:56 11° SSE 05:57:54 10° SSE visible
22 Jan 3.8 07:31:16 10° SW 07:32:53 13° S 07:34:30 10° SSE visible
23 Jan 3.7 06:32:47 10° SSW 06:34:25 13° S 06:36:05 10° SSE visible
24 Jan 4.0 05:36:47 12° SSE 05:36:47 12° SSE 05:37:27 10° SE visible
24 Jan 3.8 07:10:38 10° SW 07:11:54 12° S 07:13:11 10° SSE visible
25 Jan 3.6 06:13:02 13° SSW 06:13:26 13° S 06:15:01 10° SSE visible
27 Jan 3.9 05:53:13 11° S 05:53:13 11° S 05:53:37 10° SSE visible
